Meteo Giornale » Osservazioni meteo Italia » Cervia

ore: 08:55 - Osservazioni Meteo Cervia
Lat. 44° 13' N Lon. 12° 18' E Alt. 6 metri s.l.m.

sereno Europe/Rome

24 °C

Sereno

Temp. 24 Ore

21 °C

29 °C

Nord/NOvest

7.4 Km/h

Dew point 20 °C

Umidità 78 %

Visibilità  10 Km

Il sole sorge alle ore 05:25

Il sole tramonta alle ore 21:00

Data e Ora Cielo e Fenomeni T °C DP °C Um. % Pres. hPa Vis. km Vento km/h
Oggi h: 08:55 sereno Sereno 24 20 78 1011 10 N/NO 7.4
Oggi h: 07:55 nuvoloso Nuvoloso 24 19 73 1010 10 N/NO 11.1
Oggi h: 06:55 sereno Sereno 23 16 64 1010 10 N 1.8
Oggi h: 05:55 sereno Sereno 23 16 64 1010 10 N 5.5
Oggi h: 04:55 sereno Sereno 22 16 68 1010 10 O 11.1
Oggi h: 03:55 sereno Sereno 23 17 68 1010 10 N 5.5
Oggi h: 02:55 sereno Sereno 22 17 73 1010 10 S/SO 7.4
Oggi h: 01:55 sereno Sereno 21 18 82 1011 10 N 3.7
Oggi h: 00:55 sereno Sereno 22 19 83 1011 10 N 3.7
Ieri h: 23:55 sereno Sereno 23 18 73 1012 10 N 1.8
Ieri h: 22:55 sereno Sereno 25 20 73 1012 10 O 9.3
Ieri h: 21:55 sereno Sereno 25 20 73 1012 10 N 3.7
Ieri h: 20:55 poco_nuvoloso Poco Nuvoloso 26 20 69 1011 10 S 7.4
Ieri h: 19:55 sereno Sereno 27 20 65 1011 10 S/SE 13
Ieri h: 18:55 sereno Sereno 27 20 65 1011 10 SE 20.3
Ieri h: 16:55 sereno Sereno 29 20 58 1012 10 SE 14.8
Ieri h: 15:55 sereno Sereno 29 20 58 1013 10 E/SE 14.8
Ieri h: 12:55 sereno Sereno 28 21 65 1015 10 E 13
Ieri h: 11:55 sereno Sereno 28 18 54 1015 10 E 9.3
Ieri h: 10:55 sereno Sereno 27 17 54 1016 10 N 1.8
Ieri h: 09:55 sereno Sereno 26 18 61 1016 10 N 3.7